Ana Sayfa
METAR-TAF:

METAR-TAF

Havaalanları :

Henderson-Oxford Airport

Oxford, Kuzey Carolina, Amerika Birleşik Devletleri

Enlem: 36-21-42N, Boylam: 078-31-45W, yükseklik: 161 m

Güncel hava durumu gözlemi

Rapor saat 07:55 UTC de 20 dakika önce yapıldı.
Rüzgar güney/güneybatıdan 8 kt
Sıcaklık 11°C
Nem 58%
Basınç 1013 hPa
Görüş mesafesi: 16.1 km
Açık gökyüzü

METAR: KHNZ 120755Z AUTO 21008KT 10SM CLR 11/03 A2991 RMK AO2 T01070026

Saat: 03:15 (08:15 UTC)


TAF: eksik

4.000'den fazla havaalanı için hava durumu gözlemleri ve tahminleri (METAR ve TAF raporları).

Kullanılabilir istasyonlar harita üzerinde sarı ve kırmızı noktalarla gösterilir.

İstasyonun adını görmek için fareyi noktanın üzerinde gezdirin.

Sonrasında hava gözlem ve tahminlerini görmek için tıklayın.

Haritayı değiştirmek için: yaklaştırmak için siyah artı işaretli yeşil düğmeye ve uzaklaştırmak için de eksi işaretli düğmeye hızla tıklayın; bitişik haritalar için yeşil okları kullanın.


METAR-TAF: